Showing default

TOMORROW-S4, 62386

Orbit data source: Space-Track

TOMORROW-S4, 62386 is a payload satellite owned by Tomorrow.io (US) in LEO that was launched on Sat, 21 Dec 2024 UTC via an FALCON 9 launch vehicle from the Air Force Western Test Range (AFWTR). Payload-class satellites include a variety of spacecraft equipped with specific instruments for various scientific and technological missions. These include communications satellites like Starlink; space stations such as the ISS; scientific satellites like the Hubble; Earth observation satellites from companies like Planet Labs, Umbra, and HawkEye 360; GPS; miniature CubeSats for education and research; and military/defense satellites.

Loading next visibility...
Identifier
62386, 2024-247K
Orbit
LEO
Last TLE update
10 hours ago
Origin
Manufacturer
Blue Canyon
Mission
Operational Commercial Weather
Bus & Motor
CUBESAT 6U, Unknown motor
Mass
12 kg wet, 12 kg dry
Launch date (UTC)
2024-12-21 (7 months ago)
Launch vehicle
FALCON 9
Launch site
Air Force Western Test Range (AFWTR)
Object type
Payload
Rocket body
Debris
Shape & HBR
Box + 2 Pan, 1.2 m
Radar Cross Section
0.138 m², Medium (>0.1 m² and < 1m²)

Expand to show TLE details & history

TLE from 10 hours ago
0 TOMORROW-S4
1 62386U 24247K   25188.89969035  .00004364  00000-0  19358-3 0  9993
2 62386  44.9953   8.8041 0005437 210.4221 149.6345 15.23066472 30352
Epoch: 2025-07-07T21:35Z
TLE epoch observation values (Epoch: 2025-07-07T21:35:33.246Z)
Latitude
-0.00003°
Longitude
118.81314°
Altitude
499.821 km
Speed
7.614 km/s
True Right ascension
00h 35m 12s
True Declination
0° 00' 00"
Sunlit
Object was in daylight at epoch
Visualization orbit readout
Latitude
20.51795°
Longitude
-85.32386°
Altitude
494.469 km
Speed
7.622 km/s
Apparent Right ascension
09h 36m 46s
Apparent Declination
-9° 10' 12"
Sunlit
Object is in daylight
Visualization observer readout
Local Sidereal Time
19:47:17
Azimuth
314.13° NW
Elevation
-50.775°
Doppler factor
1
Orbital elements
Apogee altitude
501.943 km
Perigee altitude
494.466 km
Semi-major axis
6,876.341 km
Eccentricity
0.00054
Inclination
44.9953°
RAAN
8.8041°
Arg. of periapsis
210.4221°
True anomaly
Unknown
Mean anomaly
149.6345°
Eccentric anomaly
Unknown
Mean motion
3.80634 °/min
Orbital period
94.58 mins
BSTAR
0.00019358
Loading maneuver chart data...
Loading SW <> Apogee altitude chart data...
Loading historical data...
Loading historical data...
Loading historical data...
Loading historical data...
Loading historical data...
Loading historical data...
Loading historical data...

TOMORROW-S4 Visibility forecast

Observer location: undefined°, undefined°

Span
Click to sort rows by Start time (UTC) header in descending order
Start Az.
Max El. time (UTC)
Max El. Az.
Max El.
End time (UTC)
End Az.
7 mins2025-07-08 15:05:41.224Z219.783° SW2025-07-08 15:09:41.224Z130.757° SE33.592°2025-07-08 15:12:41.224Z77.394° E
6 mins2025-07-08 16:45:41.224Z271.961° WNW2025-07-08 16:48:41.224Z3.021° NNE37.734°2025-07-08 16:51:41.224Z60.772° ENE
5 mins2025-07-08 18:25:41.224Z304.714° NW2025-07-08 18:27:41.224Z353.401° N31.306°2025-07-08 18:30:41.224Z67.465° ENE
6 mins2025-07-08 20:04:41.224Z296.99° NW2025-07-08 20:07:41.224Z73.611° E43.084°2025-07-08 20:10:41.224Z107.875° ESE
4 mins2025-07-08 21:44:41.224Z251.028° W2025-07-08 21:45:41.224Z229.769° WSW21.1°2025-07-08 21:48:41.224Z169.497° S
|